MAS864 WMKK-WIMM

Flight info

Callsign MAS864
Flight time 0h 48m
Altitude 28000
Route PUGER2D PUGER
Aircraft B738/M-SDE2E3FGHIRWXY/LB1

Departure

Time 2026-04-24 09:04
Airport Kuala Lumpur International Airport (WMKK)

Arrival

Time 2026-04-24 09:52
Airport Kualanamu International Airport (WIMM)
Time Latitude Longitude Altitude Speed Heading
2026-04-24 08:45 2.75414 101.70896 75 ft 0 kts 320°
2026-04-24 08:57 2.75414 101.70897 75 ft 0 kts 320°
2026-04-24 08:57 2.75413 101.70897 75 ft 1 kts 320°
2026-04-24 08:58 2.75402 101.70907 75 ft 2 kts 320°
2026-04-24 08:58 2.75390 101.70916 75 ft 2 kts 320°
2026-04-24 08:58 2.75378 101.70926 75 ft 2 kts 328°
2026-04-24 08:58 2.75364 101.70929 75 ft 2 kts 13°
2026-04-24 08:59 2.75351 101.70922 75 ft 1 kts 49°
2026-04-24 08:59 2.75347 101.70917 75 ft 1 kts 60°
2026-04-24 08:59 2.75346 101.70915 75 ft 0 kts 57°
2026-04-24 09:01 2.75362 101.70938 75 ft 12 kts 57°
2026-04-24 09:01 2.75442 101.71058 75 ft 28 kts 56°
2026-04-24 09:01 2.75554 101.71223 75 ft 28 kts 56°
2026-04-24 09:02 2.75648 101.71364 75 ft 19 kts 57°
2026-04-24 09:02 2.75642 101.71435 75 ft 10 kts 145°
2026-04-24 09:02 2.75574 101.71481 75 ft 12 kts 145°
2026-04-24 09:02 2.75571 101.71525 75 ft 6 kts 73°
2026-04-24 09:03 2.75596 101.71588 75 ft 15 kts 57°
2026-04-24 09:03 2.75651 101.71657 75 ft 8 kts 354°
2026-04-24 09:03 2.75764 101.71587 75 ft 47 kts 326°
2026-04-24 09:03 2.76270 101.71249 75 ft 123 kts 326°
2026-04-24 09:04 2.77154 101.70656 127 ft 176 kts 326°
2026-04-24 09:04 2.78187 101.69962 886 ft 181 kts 326°
2026-04-24 09:04 2.79221 101.69267 1729 ft 187 kts 327°
2026-04-24 09:04 2.80374 101.68582 2397 ft 202 kts 339°
2026-04-24 09:05 2.81760 101.68150 3117 ft 214 kts 346°
2026-04-24 09:05 2.83234 101.67725 3796 ft 230 kts 343°
2026-04-24 09:05 2.84800 101.67200 4551 ft 244 kts 341°
2026-04-24 09:05 2.86434 101.66612 5296 ft 258 kts 341°
2026-04-24 09:06 2.88177 101.65974 6024 ft 273 kts 341°
2026-04-24 09:06 2.89987 101.65318 6880 ft 282 kts 341°
2026-04-24 09:06 2.91831 101.64654 7762 ft 288 kts 342°
2026-04-24 09:06 2.93747 101.63984 8677 ft 293 kts 342°
2026-04-24 09:07 2.95659 101.63213 9556 ft 300 kts 333°
2026-04-24 09:07 2.97316 101.61938 10405 ft 308 kts 313°
2026-04-24 09:07 2.99957 101.58311 11587 ft 339 kts 304°
2026-04-24 09:08 3.01308 101.56300 12142 ft 355 kts 305°
2026-04-24 09:08 3.02741 101.54239 12752 ft 367 kts 306°
2026-04-24 09:08 3.04229 101.52166 13515 ft 373 kts 306°
2026-04-24 09:08 3.05766 101.50062 14353 ft 376 kts 307°
2026-04-24 09:09 3.07336 101.47926 15132 ft 381 kts 307°
2026-04-24 09:09 3.08908 101.45792 15912 ft 386 kts 307°
2026-04-24 09:09 3.10495 101.43637 16604 ft 391 kts 307°
2026-04-24 09:09 3.12135 101.41407 17341 ft 396 kts 307°
2026-04-24 09:10 3.13748 101.39208 18054 ft 399 kts 306°
2026-04-24 09:10 3.15269 101.36871 18704 ft 405 kts 299°
2026-04-24 09:10 3.16446 101.34306 19392 ft 407 kts 289°
2026-04-24 09:10 3.17243 101.31570 20062 ft 410 kts 283°
2026-04-24 09:11 3.17847 101.28797 20698 ft 413 kts 281°
2026-04-24 09:11 3.18381 101.25927 21310 ft 417 kts 280°
2026-04-24 09:11 3.18878 101.23078 21928 ft 419 kts 279°
2026-04-24 09:11 3.19373 101.20200 22515 ft 422 kts 279°
2026-04-24 09:12 3.19871 101.17339 23346 ft 417 kts 279°
2026-04-24 09:12 3.20377 101.14478 24113 ft 415 kts 279°
2026-04-24 09:12 3.20881 101.11670 24975 ft 409 kts 280°
2026-04-24 09:12 3.21389 101.08873 25686 ft 407 kts 280°
2026-04-24 09:13 3.21893 101.06119 26279 ft 407 kts 280°
2026-04-24 09:13 3.22408 101.03320 26894 ft 407 kts 280°
2026-04-24 09:13 3.22924 101.00531 27518 ft 405 kts 280°
2026-04-24 09:13 3.23440 100.97752 27769 ft 408 kts 280°
2026-04-24 09:14 3.24018 100.94971 27778 ft 407 kts 282°
2026-04-24 09:14 3.24661 100.92236 27781 ft 404 kts 283°
2026-04-24 09:14 3.25330 100.89538 27783 ft 403 kts 283°
2026-04-24 09:14 3.26020 100.86794 27781 ft 403 kts 283°
2026-04-24 09:15 3.26701 100.84074 27781 ft 404 kts 283°
2026-04-24 09:15 3.27378 100.81355 27777 ft 399 kts 283°
2026-04-24 09:15 3.28030 100.78711 27778 ft 384 kts 283°
2026-04-24 09:15 3.28650 100.76180 27781 ft 368 kts 283°
2026-04-24 09:16 3.29247 100.73729 27780 ft 354 kts 283°
2026-04-24 09:16 3.29819 100.71371 27777 ft 348 kts 283°
2026-04-24 09:16 3.30392 100.68999 27775 ft 353 kts 283°
2026-04-24 09:16 3.30973 100.66589 27768 ft 357 kts 283°
2026-04-24 09:17 3.31558 100.64163 27761 ft 357 kts 283°
2026-04-24 09:17 3.32139 100.61753 27760 ft 356 kts 283°
2026-04-24 09:17 3.32712 100.59377 27759 ft 356 kts 283°
2026-04-24 09:17 3.33295 100.56959 27760 ft 356 kts 283°
2026-04-24 09:18 3.33873 100.54561 27761 ft 355 kts 283°
2026-04-24 09:18 3.34458 100.52135 27759 ft 356 kts 283°
2026-04-24 09:18 3.35032 100.49752 27475 ft 354 kts 283°
2026-04-24 09:18 3.35608 100.47360 26806 ft 361 kts 283°
2026-04-24 09:19 3.36203 100.44891 26308 ft 362 kts 283°
2026-04-24 09:19 3.36788 100.42465 25972 ft 357 kts 283°
2026-04-24 09:19 3.37369 100.40054 25539 ft 356 kts 283°
2026-04-24 09:19 3.37942 100.37679 25119 ft 354 kts 283°
2026-04-24 09:20 3.38517 100.35293 24699 ft 352 kts 283°
2026-04-24 09:20 3.39246 100.32118 24130 ft 350 kts 279°
2026-04-24 09:20 3.39460 100.30510 23847 ft 348 kts 273°
2026-04-24 09:20 3.39361 100.28101 23431 ft 345 kts 259°
2026-04-24 09:21 3.38789 100.25798 23019 ft 343 kts 252°
2026-04-24 09:21 3.38030 100.23553 22598 ft 341 kts 250°
2026-04-24 09:21 3.37208 100.21306 22175 ft 339 kts 249°
2026-04-24 09:21 3.36393 100.19119 21775 ft 338 kts 249°
2026-04-24 09:22 3.35573 100.16908 21363 ft 336 kts 249°
2026-04-24 09:22 3.34772 100.14728 20956 ft 335 kts 249°
2026-04-24 09:22 3.33977 100.12548 20545 ft 335 kts 249°
2026-04-24 09:22 3.33184 100.10360 20130 ft 334 kts 249°
2026-04-24 09:23 3.32388 100.08156 19713 ft 333 kts 249°
2026-04-24 09:23 3.31613 100.06008 19308 ft 332 kts 249°
2026-04-24 09:23 3.30830 100.03835 18901 ft 331 kts 249°
2026-04-24 09:23 3.30052 100.01675 18496 ft 330 kts 249°
2026-04-24 09:24 3.29273 99.99508 18091 ft 328 kts 248°
2026-04-24 09:24 3.28501 99.97362 17683 ft 327 kts 248°
2026-04-24 09:24 3.27736 99.95232 17284 ft 326 kts 248°
2026-04-24 09:24 3.26967 99.93098 16879 ft 326 kts 248°
2026-04-24 09:25 3.26198 99.90963 16471 ft 325 kts 248°
2026-04-24 09:25 3.25428 99.88828 16072 ft 327 kts 248°
2026-04-24 09:25 3.24655 99.86684 15661 ft 331 kts 249°
2026-04-24 09:25 3.23872 99.84512 15249 ft 329 kts 249°
2026-04-24 09:26 3.23100 99.82371 14851 ft 327 kts 249°
2026-04-24 09:26 3.22335 99.80250 14788 ft 320 kts 249°
2026-04-24 09:26 3.21574 99.78153 14784 ft 325 kts 249°
2026-04-24 09:26 3.20793 99.76006 14783 ft 325 kts 249°
2026-04-24 09:27 3.19964 99.73896 14784 ft 324 kts 244°
2026-04-24 09:27 3.19152 99.71825 14780 ft 325 kts 255°
2026-04-24 09:27 3.18979 99.69576 14785 ft 327 kts 277°
2026-04-24 09:27 3.19683 99.67421 14786 ft 327 kts 301°
2026-04-24 09:28 3.21166 99.65698 14795 ft 326 kts 324°
2026-04-24 09:28 3.23201 99.64677 14789 ft 324 kts 347°
2026-04-24 09:28 3.25402 99.64522 14784 ft 320 kts 10°
2026-04-24 09:28 3.27494 99.65232 14785 ft 315 kts 34°
2026-04-24 09:29 3.29100 99.66682 14789 ft 310 kts 56°
2026-04-24 09:29 3.30167 99.68573 14789 ft 309 kts 67°
2026-04-24 09:29 3.31024 99.70556 14776 ft 308 kts 69°
2026-04-24 09:29 3.31833 99.72551 14776 ft 308 kts 70°
2026-04-24 09:30 3.32624 99.74535 14774 ft 308 kts 70°
2026-04-24 09:30 3.33677 99.77198 14766 ft 307 kts 72°
2026-04-24 09:30 3.34000 99.78605 14757 ft 305 kts 88°
2026-04-24 09:30 3.33622 99.80666 14751 ft 304 kts 115°
2026-04-24 09:31 3.32466 99.82430 14540 ft 307 kts 132°
2026-04-24 09:31 3.30755 99.83688 14305 ft 306 kts 156°
2026-04-24 09:31 3.28662 99.84158 14084 ft 312 kts 177°
2026-04-24 09:31 3.26394 99.83921 13852 ft 336 kts 193°
2026-04-24 09:32 3.24269 99.82895 13600 ft 343 kts 218°
2026-04-24 09:32 3.22761 99.81053 13368 ft 344 kts 241°
2026-04-24 09:32 3.21806 99.78833 13136 ft 344 kts 249°
2026-04-24 09:32 3.21037 99.76574 12897 ft 344 kts 251°
2026-04-24 09:33 3.20295 99.74291 12777 ft 340 kts 251°
2026-04-24 09:33 3.19538 99.72033 12779 ft 343 kts 250°
2026-04-24 09:33 3.18759 99.69796 12783 ft 343 kts 250°
2026-04-24 09:33 3.17951 99.67545 12780 ft 342 kts 249°
2026-04-24 09:34 3.17142 99.65322 12787 ft 343 kts 249°
2026-04-24 09:34 3.16310 99.63056 12795 ft 342 kts 249°
2026-04-24 09:34 3.15497 99.60847 12786 ft 343 kts 249°
2026-04-24 09:34 3.14670 99.58603 12788 ft 345 kts 249°
2026-04-24 09:35 3.13836 99.56343 12792 ft 345 kts 249°
2026-04-24 09:35 3.13004 99.54082 12796 ft 345 kts 249°
2026-04-24 09:35 3.12173 99.51817 12797 ft 346 kts 249°
2026-04-24 09:35 3.11345 99.49555 12801 ft 346 kts 249°
2026-04-24 09:36 3.10515 99.47286 12800 ft 347 kts 249°
2026-04-24 09:36 3.09684 99.45021 12799 ft 347 kts 249°
2026-04-24 09:36 3.08846 99.42738 12804 ft 347 kts 249°
2026-04-24 09:36 3.08013 99.40472 12799 ft 346 kts 249°
2026-04-24 09:37 3.07188 99.38230 12803 ft 346 kts 249°
2026-04-24 09:37 3.06354 99.35957 12809 ft 345 kts 249°
2026-04-24 09:37 3.05525 99.33694 12805 ft 345 kts 249°
2026-04-24 09:37 3.04696 99.31439 12817 ft 358 kts 249°
2026-04-24 09:38 3.03798 99.29001 12809 ft 374 kts 249°
2026-04-24 09:38 3.02897 99.26553 12811 ft 377 kts 249°
2026-04-24 09:38 3.01984 99.24068 12821 ft 378 kts 249°
2026-04-24 09:38 3.01085 99.21622 12815 ft 378 kts 249°
2026-04-24 09:39 3.00171 99.19137 12836 ft 380 kts 249°
2026-04-24 09:39 2.99375 99.16605 12846 ft 380 kts 257°
2026-04-24 09:39 2.99132 99.13975 12837 ft 380 kts 275°
2026-04-24 09:39 2.99790 99.11439 12841 ft 380 kts 295°
2026-04-24 09:40 3.01267 99.09234 12854 ft 379 kts 313°
2026-04-24 09:40 3.03127 99.07350 12668 ft 379 kts 316°
2026-04-24 09:40 3.05005 99.05518 12349 ft 371 kts 316°
2026-04-24 09:40 3.06853 99.03711 11944 ft 364 kts 316°
2026-04-24 09:41 3.08638 99.01955 11416 ft 362 kts 316°
2026-04-24 09:41 3.10428 99.00185 10965 ft 357 kts 316°
2026-04-24 09:41 3.12176 98.98448 10728 ft 346 kts 315°
2026-04-24 09:41 3.13841 98.96790 10592 ft 332 kts 316°
2026-04-24 09:42 3.15465 98.95170 10457 ft 320 kts 316°
2026-04-24 09:42 3.17024 98.93615 10312 ft 309 kts 316°
2026-04-24 09:42 3.18531 98.92111 10039 ft 303 kts 316°
2026-04-24 09:42 3.20029 98.90618 9630 ft 303 kts 315°
2026-04-24 09:43 3.21524 98.89128 9261 ft 301 kts 316°
2026-04-24 09:43 3.23017 98.87642 8878 ft 300 kts 316°
2026-04-24 09:43 3.24487 98.86177 8504 ft 298 kts 315°
2026-04-24 09:43 3.25970 98.84700 8138 ft 296 kts 316°
2026-04-24 09:44 3.27420 98.83255 7765 ft 295 kts 316°
2026-04-24 09:44 3.28888 98.81792 7399 ft 293 kts 316°
2026-04-24 09:44 3.30313 98.80373 7044 ft 291 kts 316°
2026-04-24 09:44 3.31765 98.78938 6669 ft 289 kts 317°
2026-04-24 09:45 3.33206 98.77555 6313 ft 287 kts 317°
2026-04-24 09:45 3.34648 98.76189 5956 ft 286 kts 317°
2026-04-24 09:45 3.36100 98.74813 5593 ft 284 kts 317°
2026-04-24 09:45 3.37539 98.73445 5228 ft 283 kts 317°
2026-04-24 09:46 3.38962 98.72089 4934 ft 279 kts 317°
2026-04-24 09:46 3.40331 98.70780 4843 ft 267 kts 317°
2026-04-24 09:46 3.41694 98.69571 4763 ft 255 kts 324°
2026-04-24 09:46 3.43230 98.68797 4674 ft 241 kts 351°
2026-04-24 09:47 3.44860 98.68896 4492 ft 231 kts 22°
2026-04-24 09:47 3.46204 98.69714 4310 ft 222 kts 42°
2026-04-24 09:47 3.47302 98.70759 4209 ft 210 kts 45°
2026-04-24 09:47 3.48342 98.71789 3857 ft 211 kts 45°
2026-04-24 09:48 3.49384 98.72818 3547 ft 209 kts 45°
2026-04-24 09:48 3.50407 98.73828 3269 ft 206 kts 45°
2026-04-24 09:48 3.51426 98.74836 2992 ft 203 kts 45°
2026-04-24 09:48 3.52420 98.75819 2727 ft 200 kts 45°
2026-04-24 09:49 3.53404 98.76793 2465 ft 197 kts 45°
2026-04-24 09:49 3.54368 98.77745 2212 ft 194 kts 45°
2026-04-24 09:49 3.55335 98.78702 1957 ft 194 kts 45°
2026-04-24 09:49 3.56293 98.79652 1702 ft 193 kts 45°
2026-04-24 09:50 3.57222 98.80569 1475 ft 178 kts 45°
2026-04-24 09:50 3.58046 98.81385 1238 ft 159 kts 45°
2026-04-24 09:50 3.58809 98.82140 1030 ft 147 kts 44°
2026-04-24 09:50 3.59539 98.82861 861 ft 147 kts 44°
2026-04-24 09:51 3.60269 98.83583 672 ft 145 kts 44°
2026-04-24 09:51 3.60992 98.84294 480 ft 146 kts 43°
2026-04-24 09:51 3.61726 98.84993 304 ft 143 kts 44°
2026-04-24 09:51 3.62434 98.85709 137 ft 145 kts 44°
2026-04-24 09:52 3.63144 98.86422 33 ft 140 kts 45°
2026-04-24 09:52 3.63676 98.86946 43 ft 74 kts 44°
2026-04-24 09:52 3.63943 98.87210 33 ft 46 kts 46°
2026-04-24 09:52 3.64100 98.87476 25 ft 43 kts 73°
2026-04-24 09:53 3.64199 98.87726 27 ft 30 kts 51°
2026-04-24 09:53 3.64323 98.87853 30 ft 23 kts 45°
2026-04-24 09:53 3.64416 98.87948 33 ft 10 kts 51°
2026-04-24 09:53 3.64409 98.87999 35 ft 6 kts 133°
2026-04-24 09:54 3.64382 98.88026 36 ft 4 kts 135°
2026-04-24 09:54 3.64366 98.88041 37 ft 4 kts 135°
2026-04-24 09:54 3.64317 98.88090 38 ft 11 kts 134°
2026-04-24 09:54 3.64261 98.88148 38 ft 11 kts 134°
2026-04-24 09:55 3.64205 98.88202 37 ft 10 kts 142°
2026-04-24 09:55 3.64146 98.88187 37 ft 9 kts 224°
2026-04-24 09:55 3.64095 98.88136 36 ft 11 kts 225°
2026-04-24 09:55 3.64037 98.88078 34 ft 12 kts 225°
2026-04-24 09:56 3.63972 98.88015 32 ft 12 kts 225°
2026-04-24 09:56 3.63921 98.87965 32 ft 9 kts 213°
2026-04-24 09:56 3.63870 98.87978 32 ft 6 kts 137°
2026-04-24 09:56 3.63849 98.87997 32 ft 4 kts 136°
2026-04-24 09:57 3.63823 98.88022 32 ft 7 kts 135°
2026-04-24 09:57 3.63755 98.88090 31 ft 16 kts 135°
2026-04-24 09:57 3.63687 98.88120 30 ft 9 kts 219°
2026-04-24 09:57 3.63653 98.88086 31 ft 3 kts 225°
2026-04-24 09:58 3.63649 98.88082 31 ft 0 kts 225°